User: anonymous   Login
Location: Unspecified
(0.0000°N, 0.0000°E)
Time: 16:29:00
(UTC+00:00)
Language:

ISS - Orbit

View from above orbital plane
View from above orbital plane
View from above satellite
View from above satellite

Ground track
Ground track

The orbit data is extracted from the following two-line orbital elements,

1 25544U 98067A   16181.61049562  .00016717  00000-0  10270-3 0  9074
2 25544  51.6413 356.0568 0000696  18.0547 342.0631 15.54713658  6911
Epoch (UTC): 29 June 2016 14:39:06
Eccentricity: 0.0000696
inclination: 51.6413°
perigee height: 402 km
apogee height: 403 km
right ascension of ascending node: 356.0568°
argument of perigee: 18.0547°
revolutions per day: 15.54713658
mean anomaly at epoch: 342.0631°
orbit number at epoch: 691

The dashed part of the orbit path shows where the satellite is in the earth's shadow,  

DLR